2022/12/20 00:00:00,11.0,-1.8
2022/12/20 00:10:00,11.1,-1.8
2022/12/20 00:20:00,11.3,-1.8
2022/12/20 00:30:00,11.4,-2.2
2022/12/20 00:40:00,11.5,-2.0
2022/12/20 00:50:00,11.8,-2.0
2022/12/20 01:00:00,11.9,-1.8
2022/12/20 01:10:00,12.0,-1.8
2022/12/20 01:20:00,12.5,-1.8
2022/12/20 01:30:00,12.8,-1.9
2022/12/20 01:40:00,13.1,-2.0
2022/12/20 01:50:00,13.6,-1.6
2022/12/20 02:00:00,14.2,-1.8
2022/12/20 02:10:00,14.8,-1.7
2022/12/20 02:20:00,14.8,-1.7
2022/12/20 02:30:00,15.0,-1.8
2022/12/20 02:40:00,15.7,-1.7
2022/12/20 02:50:00,16.1,-1.7
2022/12/20 03:00:00,16.2,-1.8
2022/12/20 03:10:00,16.2,-1.8
2022/12/20 03:20:00,16.6,-1.6
2022/12/20 03:30:00,16.5,-1.8
2022/12/20 03:40:00,16.3,-1.8
2022/12/20 03:50:00,16.3,-1.6
2022/12/20 04:00:00,16.2,-1.7
2022/12/20 04:10:00,16.3,-1.8
2022/12/20 04:20:00,16.2,-1.6
2022/12/20 04:30:00,16.1,-1.5
2022/12/20 04:40:00,15.9,-1.4
2022/12/20 04:50:00,16.5,-1.5
2022/12/20 05:00:00,17.1,-1.4
2022/12/20 05:10:00,17.3,-1.3
2022/12/20 05:20:00,17.2,-1.1
2022/12/20 05:30:00,17.3,-1.2
2022/12/20 05:40:00,17.5,-1.2
2022/12/20 05:50:00,17.5,-1.1
2022/12/20 06:00:00,17.4,-1.1
2022/12/20 06:10:00,17.2,-1.3
2022/12/20 06:20:00,17.2,-1.1
2022/12/20 06:30:00,17.3,-1.0
2022/12/20 06:40:00,17.2,-1.6
2022/12/20 06:50:00,17.1,-1.1
2022/12/20 07:00:00,17.1,-1.2
2022/12/20 07:10:00,17.0,-1.2
2022/12/20 07:20:00,17.0,-1.2
2022/12/20 07:30:00,16.8,-1.1
2022/12/20 07:40:00,16.7,-1.1
2022/12/20 07:50:00,16.7,-1.0
2022/12/20 08:00:00,16.8,-0.9
2022/12/20 08:10:00,17.0,-0.8
2022/12/20 08:20:00,20.9,-0.4
2022/12/20 08:30:00,21.0,-0.2
2022/12/20 08:40:00,21.3, 0.0
2022/12/20 08:50:00,21.2, 0.1
2022/12/20 09:00:00,21.1, 0.3
2022/12/20 09:10:00,21.0, 0.6
2022/12/20 09:20:00,20.8, 0.7
2022/12/20 09:30:00,20.8, 0.7
2022/12/20 09:40:00,20.7, 1.0
2022/12/20 09:50:00,20.6, 1.0
2022/12/20 10:00:00,20.6, 0.9
2022/12/20 10:10:00,20.5, 0.9
2022/12/20 10:20:00,20.7, 0.9
2022/12/20 10:30:00,20.7, 1.0
2022/12/20 10:40:00,20.6, 1.4
2022/12/20 10:50:00,20.5, 1.9
2022/12/20 11:00:00,20.4, 1.7
2022/12/20 11:10:00,20.3, 2.3
2022/12/20 11:20:00,20.1, 2.6
2022/12/20 11:30:00,20.0, 2.1
2022/12/20 11:40:00,19.9, 2.1
2022/12/20 11:50:00,19.9, 2.1
2022/12/20 12:00:00,19.9, 2.3
2022/12/20 12:10:00,19.9, 2.4
2022/12/20 12:20:00,19.8, 2.5
2022/12/20 12:30:00,19.7, 2.6
2022/12/20 12:40:00,19.7, 2.8
2022/12/20 12:50:00,19.6, 2.8
2022/12/20 13:00:00,19.5, 2.8
2022/12/20 13:10:00,19.4, 2.8
2022/12/20 13:20:00,19.2, 2.5
2022/12/20 13:30:00,18.9, 2.3
2022/12/20 13:40:00,18.8, 2.4
2022/12/20 13:50:00,18.8, 2.5
2022/12/20 14:00:00,18.7, 2.8
2022/12/20 14:10:00,18.7, 2.1
2022/12/20 14:20:00,18.6, 2.0
2022/12/20 14:30:00,18.4, 2.2
2022/12/20 14:40:00,18.3, 1.9
2022/12/20 14:50:00,18.2, 1.8
2022/12/20 15:00:00,18.2, 2.0
2022/12/20 15:10:00,18.2, 2.0
2022/12/20 15:20:00,18.1, 1.7
2022/12/20 15:30:00,18.1, 1.7
2022/12/20 15:40:00,18.0, 1.7
2022/12/20 15:50:00,17.9, 1.6
2022/12/20 16:00:00,17.9, 1.4
2022/12/20 16:10:00,17.8, 1.2
2022/12/20 16:20:00,17.7, 1.1
2022/12/20 16:30:00,17.6, 1.0
2022/12/20 16:40:00,17.6, 1.0
2022/12/20 16:50:00,17.6, 1.0
2022/12/20 17:00:00,17.5, 0.9
2022/12/20 17:10:00,17.5, 0.6
2022/12/20 17:20:00,17.5, 0.6
2022/12/20 17:30:00,17.6, 0.6
2022/12/20 17:40:00,17.6, 0.6
2022/12/20 17:50:00,17.6, 0.7
2022/12/20 18:00:00,17.5, 0.6
2022/12/20 18:10:00,17.5, 0.5
2022/12/20 18:20:00,17.5, 0.6
2022/12/20 18:30:00,17.4, 0.8
2022/12/20 18:40:00,17.3,-0.2
2022/12/20 18:50:00,17.2, 0.6
2022/12/20 19:00:00,17.1, 0.1
2022/12/20 19:10:00,17.0, 0.4
2022/12/20 19:20:00,17.0, 0.2
2022/12/20 19:30:00,16.9, 0.1
2022/12/20 19:40:00,16.8, 0.1
2022/12/20 19:50:00,16.8, 0.2
2022/12/20 20:00:00,16.8,-0.1
2022/12/20 20:10:00,16.7,-0.2
2022/12/20 20:20:00,16.7,-0.2
2022/12/20 20:30:00,16.6,-0.1
2022/12/20 20:40:00,16.6,-0.2
2022/12/20 20:50:00,16.6,-0.2
2022/12/20 21:00:00,16.5,-0.4
2022/12/20 21:10:00,16.5,-0.8
2022/12/20 21:20:00,16.4,-1.1
2022/12/20 21:30:00,16.4,-0.6
2022/12/20 21:40:00,16.4,-1.2
2022/12/20 21:50:00,16.3,-1.3
2022/12/20 22:00:00,16.3,-1.2
2022/12/20 22:10:00,16.3,-1.4
2022/12/20 22:20:00,16.2,-1.7
2022/12/20 22:30:00,16.2,-2.1
2022/12/20 22:40:00,16.3,-2.5
2022/12/20 22:50:00,16.3,-2.5
2022/12/20 23:00:00,16.3,-2.8
2022/12/20 23:10:00,16.4,-3.3
2022/12/20 23:20:00,16.4,-3.3
2022/12/20 23:30:00,16.4,-3.2
2022/12/20 23:40:00,16.4,-3.5
2022/12/20 23:50:00,16.4,-3.6
